Theta_e
329 329 329 329 329 329 328 329 329 329 329 328 328 328 328 327 327 327 327 326 326 326 326 326 327 327 326 326 326 325 325 324 324 324 323 322 322 321 320 320 319 319
325 328 329 329 329 328 328 328 328 328 329 329 328 328 328 328 327 327 327 327 327 327 326 326 326 326 326 326 326 326 326 325 325 324 324 323 323 322 322 321 321 320
320 324 327 329 329 328 328 328 327 328 328 328 329 328 328 328 328 328 328 327 327 327 327 327 326 326 326 326 326 325 326 326 326 325 325 324 324 323 323 322 322 321
316 318 322 325 327 328 328 328 328 327 327 327 328 328 328 329 328 328 328 328 328 327 327 327 327 327 326 326 326 326 325 325 326 326 325 325 325 324 324 323 323 323
313 314 316 319 323 326 327 328 328 328 327 327 327 327 328 328 328 328 328 328 328 328 327 327 327 327 327 326 326 326 325 325 325 326 325 325 325 325 324 324 324 323
313 313 313 315 318 321 325 326 327 327 327 327 327 327 327 327 327 328 328 328 328 328 328 327 327 327 327 327 326 326 325 325 325 325 325 325 325 325 324 324 324 324
313 313 313 314 314 317 321 324 326 327 327 327 327 327 326 326 327 327 327 328 328 328 328 328 327 327 327 327 326 326 326 325 325 325 325 325 325 325 325 324 324 324
313 313 312 313 314 315 317 320 323 325 326 327 327 327 327 326 326 326 326 327 327 328 328 328 328 327 327 327 326 326 326 325 325 325 325 325 325 325 325 324 324 324
313 313 312 312 313 314 315 317 319 323 324 326 326 326 326 326 326 326 326 326 326 327 327 328 328 328 327 327 326 326 326 325 325 325 325 324 324 324 324 324 324 324
314 314 313 311 312 313 314 315 317 319 322 324 325 326 326 326 326 326 326 326 326 326 327 327 327 328 328 327 327 326 326 326 325 325 325 324 324 324 324 323 323 323
314 314 314 312 312 311 311 313 314 316 318 321 323 325 325 326 326 326 326 326 326 326 327 327 327 327 327 327 327 327 326 326 326 325 325 325 324 324 324 323 323 323
314 314 314 313 312 311 311 311 311 313 314 317 320 322 324 325 326 326 326 326 326 326 326 327 327 327 327 327 327 327 326 326 326 325 325 324 324 324 324 324 323 323
313 313 312 311 311 310 310 309 310 311 313 314 317 319 322 324 325 325 326 326 326 326 326 326 327 327 327 327 327 326 326 326 325 325 325 324 324 324 324 324 323 323
311 310 310 309 309 308 308 308 308 309 310 312 315 318 320 322 323 325 325 326 326 326 326 326 326 326 326 326 326 326 326 325 325 325 324 324 324 324 324 324 323 323
308 308 308 308 308 307 307 307 307 307 308 309 312 315 318 320 322 323 324 325 325 325 325 325 325 325 325 325 325 325 325 325 325 324 324 324 323 323 323 323 323 323
307 307 306 307 306 306 306 306 306 306 306 307 308 310 313 317 320 322 323 323 324 324 324 324 324 325 325 325 325 325 325 325 324 324 324 324 323 323 323 323 323 323
305 305 305 306 306 306 306 305 306 306 306 306 306 307 308 310 313 316 318 320 321 322 323 323 323 324 324 324 325 325 324 324 324 324 323 323 323 323 322 322 322 322
304 304 304 304 304 304 304 304 304 305 305 305 306 306 306 306 307 308 310 312 314 317 319 321 322 322 323 323 323 323 324 323 323 323 323 323 322 322 322 322 322 322
302 302 302 302 302 303 303 303 303 303 304 304 304 305 305 305 305 305 305 306 307 309 311 314 317 319 320 321 321 321 321 322 321 321 321 321 321 321 321 321 321 321
300 300 301 301 301 301 301 302 302 302 302 303 303 303 304 304 304 304 304 304 304 304 305 306 308 310 312 315 317 318 319 319 320 320 319 320 320 320 321 321 321 321
298 299 299 300 300 300 301 301 301 301 301 301 301 301 302 302 303 303 303 303 303 303 303 303 303 304 305 306 308 311 313 314 316 317 318 318 318 319 319 320 320 320
297 297 298 298 299 299 300 300 300 300 300 300 300 300 300 301 301 301 302 301 302 301 301 301 302 302 302 302 302 304 306 308 310 312 313 315 316 316 317 317 318 319
297 296 297 297 297 298 298 299 299 300 300 300 300 300 300 300 300 300 300 300 300 300 300 300 301 300 300 300 300 300 302 303 305 307 309 310 312 313 314 315 315 316
296 296 296 296 296 296 296 297 297 298 299 298 299 299 300 300 299 299 299 299 299 299 299 299 300 299 299 298 298 299 300 301 303 304 306 307 308 309 310 311 312 313
295 295 295 295 295 295 295 296 296 297 297 298 298 298 298 299 299 299 299 299 298 298 298 297 297 297 297 297 297 298 299 300 301 303 304 305 306 306 307 308 309 310
294 294 294 294 294 295 295 295 296 296 296 297 297 297 297 298 298 298 299 299 298 297 296 295 295 296 296 296 296 297 298 299 300 301 302 303 304 304 305 306 307 308
Wind_Speed
32 34 35 35 36 37 36 35 34 34 34 35 36 37 39 39 39 38 39 41 43 44 45 45 44 44 44 43 42 41 41 40 41 42 41 41 42 43 43 44 44 42
29 31 34 35 36 37 37 37 35 34 35 36 37 37 38 38 38 37 38 40 41 43 45 45 45 44 44 44 43 42 41 41 41 41 41 41 42 43 44 45 45 44
26 28 31 34 36 37 37 36 36 36 37 37 37 37 37 38 37 38 38 39 40 42 43 44 45 44 44 44 43 42 42 42 42 43 42 42 42 42 44 45 45 44
22 25 28 32 35 36 36 35 35 37 38 38 38 38 37 38 38 38 38 39 40 42 42 43 44 44 44 44 43 43 42 43 44 43 43 42 42 43 44 43 43 43
18 21 25 29 32 33 34 35 36 37 37 38 39 38 38 38 38 37 37 38 40 41 42 42 42 43 43 43 43 43 42 42 43 43 42 42 42 42 42 41 41 41
16 18 21 25 28 30 32 34 36 37 37 38 38 38 38 38 37 37 38 38 38 40 40 40 40 41 42 42 42 42 42 42 42 41 42 42 42 41 40 40 40 41
19 18 18 21 24 27 29 32 34 35 36 37 37 37 37 37 37 37 38 37 37 38 39 39 40 40 41 40 40 40 41 41 40 40 41 42 41 41 40 40 41 41
22 21 19 19 21 24 27 30 32 34 34 35 35 36 36 36 37 37 37 37 37 37 38 38 39 40 40 39 39 40 40 40 39 39 40 41 40 40 41 40 41 41
24 24 22 20 21 23 25 28 30 32 33 33 34 35 36 36 36 37 37 37 37 38 38 39 39 39 39 38 38 39 39 40 40 40 41 41 41 41 42 41 40 41
27 26 24 22 21 22 24 25 28 30 31 33 34 35 35 35 36 36 36 37 37 38 39 39 39 39 39 39 39 40 41 41 41 41 42 42 43 43 42 40 40 40
28 27 25 24 23 23 23 24 25 27 29 31 33 34 35 35 35 35 35 36 37 38 39 39 39 40 39 39 40 40 41 42 42 42 42 43 43 43 42 41 40 40
29 27 26 26 25 25 24 24 24 25 27 29 31 33 34 35 35 35 35 36 37 38 39 39 39 39 39 40 41 41 41 42 42 42 42 42 43 42 42 41 41 41
28 28 29 29 29 29 28 27 26 25 26 27 28 30 33 34 35 35 35 35 36 37 38 39 39 39 39 40 41 41 41 41 41 41 41 41 41 41 41 40 40 41
27 28 30 31 31 32 32 31 29 28 27 27 28 29 31 33 34 35 35 35 36 38 38 39 39 39 40 41 41 40 40 40 39 39 39 39 39 40 40 39 40 40
25 26 27 28 30 31 31 32 31 30 29 28 28 29 30 31 31 32 33 34 36 37 38 38 39 40 41 40 39 38 37 38 38 37 37 38 38 38 38 39 39 40
23 23 24 25 27 28 29 30 30 29 29 28 28 28 29 30 30 30 30 32 34 35 36 37 38 39 40 39 39 38 37 36 36 36 36 36 36 36 36 38 39 41
22 22 22 23 24 25 27 28 28 28 28 28 28 27 27 28 29 29 30 31 31 32 33 35 36 38 38 38 38 37 37 36 36 36 35 35 35 35 36 37 38 39
22 22 23 23 23 24 25 26 27 27 27 28 29 28 27 27 28 29 30 31 31 32 33 34 35 36 35 36 37 37 36 36 36 36 35 35 35 35 36 36 35 36
23 24 24 25 24 25 25 25 26 26 26 27 28 28 28 29 29 29 30 30 30 32 33 34 35 35 34 34 34 35 36 37 39 38 37 37 37 37 37 37 36 36
25 26 26 26 26 25 25 26 26 26 26 26 26 27 28 29 30 30 30 30 29 30 32 34 35 35 34 33 33 32 32 34 37 39 39 39 39 38 37 37 37 36
26 27 27 27 27 27 27 27 26 26 26 26 26 26 27 28 29 29 30 30 29 29 30 33 34 33 32 33 33 32 31 31 33 35 36 38 39 39 38 38 38 37
26 26 26 27 27 27 28 28 27 27 26 26 26 26 25 26 27 28 29 30 30 29 29 33 34 31 29 31 31 31 31 32 33 34 35 36 38 38 37 38 38 37
25 25 25 26 26 27 28 28 27 27 26 24 25 26 26 25 26 28 28 28 29 29 29 33 35 30 28 29 27 26 27 29 32 33 34 36 37 36 35 37 38 37
24 23 23 24 25 26 26 27 27 27 25 23 22 24 26 25 25 27 28 28 28 29 28 31 34 31 28 28 26 24 24 26 29 31 33 36 37 36 36 37 38 39
23 22 22 22 23 24 24 25 26 26 25 24 22 22 23 24 24 26 28 28 27 28 27 28 32 31 27 26 26 23 22 24 27 29 32 33 33 34 35 37 38 38
25 24 23 22 22 22 22 23 24 24 24 24 24 23 23 23 23 24 27 28 26 26 25 25 27 29 27 25 24 23 22 23 25 28 30 31 30 30 32 34 34 35
Wind_Direction
253 249 247 247 246 247 247 247 246 245 244 243 242 242 243 244 243 240 237 236 235 235 235 236 236 235 236 235 235 234 234 234 234 234 234 233 233 233 233 234 234 233
261 255 251 250 249 249 249 249 248 248 247 247 246 246 246 246 245 242 240 239 237 237 237 237 236 236 236 235 235 234 233 234 234 235 235 234 234 234 234 235 235 235
267 262 257 253 252 253 252 251 251 251 251 251 249 249 248 247 247 245 243 242 240 240 239 238 237 236 236 236 235 234 233 234 234 235 236 235 235 235 235 236 236 236
272 267 263 260 257 256 256 254 253 253 252 252 252 251 250 250 249 248 246 244 243 242 241 239 238 237 237 236 235 234 234 235 236 236 236 236 236 236 236 237 237 237
285 276 269 266 263 261 258 255 254 255 254 254 254 253 252 252 251 250 249 247 244 243 242 241 240 238 237 236 235 235 235 235 236 236 237 238 237 237 237 238 238 238
302 291 279 273 269 265 262 258 257 257 256 256 256 255 255 254 253 252 251 250 248 245 243 242 241 240 238 237 236 236 236 236 237 237 237 239 239 239 238 238 239 239
315 305 293 284 277 271 266 263 261 259 258 258 258 258 258 256 255 254 253 253 251 249 246 244 242 241 239 238 236 237 237 238 238 238 238 239 241 241 240 239 239 240
321 313 304 295 286 279 273 268 266 262 261 260 258 259 260 259 259 258 257 255 253 252 250 248 245 243 241 238 236 237 238 238 239 238 239 240 241 241 241 240 240 241
324 318 311 301 291 284 278 273 270 267 265 262 261 262 262 261 261 261 259 257 255 253 252 250 248 246 243 240 238 238 238 239 239 239 239 240 240 241 241 240 240 241
323 318 312 305 298 291 284 278 274 271 268 265 263 264 263 262 261 260 259 257 255 253 251 250 249 247 245 242 240 240 240 240 240 240 240 240 241 242 242 241 241 242
319 315 311 307 304 300 294 288 282 276 272 269 267 265 264 263 261 259 257 255 253 252 251 249 249 248 246 244 243 242 242 242 242 241 241 242 242 243 243 242 242 242
316 314 312 308 305 304 301 297 290 282 277 273 271 269 267 264 262 259 256 254 253 253 251 250 249 248 246 245 245 244 242 242 242 243 243 243 243 244 244 243 243 244
314 315 314 312 309 308 306 302 297 290 284 280 277 274 272 268 264 261 259 256 255 254 252 251 250 249 248 248 247 246 244 244 243 244 244 245 245 245 245 245 245 245
315 317 316 315 314 313 311 308 306 301 295 290 285 280 275 273 270 267 264 261 258 255 254 253 251 250 250 249 248 247 246 245 246 246 246 246 247 247 247 247 247 248
318 319 319 319 318 318 316 314 312 309 305 298 291 285 280 277 275 272 269 266 262 259 257 254 252 251 250 250 249 248 247 247 248 248 248 248 248 248 248 247 248 249
324 324 324 324 322 321 321 320 318 315 311 305 298 292 286 282 278 275 272 269 267 264 261 257 254 253 253 251 250 250 249 249 249 249 249 249 249 249 249 248 248 249
333 332 331 329 326 325 325 324 323 319 315 310 305 301 295 290 284 280 276 273 271 268 266 262 259 257 256 254 252 251 251 250 251 251 251 251 251 250 250 250 249 248
337 335 333 330 328 327 327 326 324 320 316 313 309 307 303 297 291 287 283 280 276 273 270 267 265 263 261 258 256 255 254 254 253 254 254 254 253 253 253 253 251 250
339 337 335 333 331 329 327 327 325 322 319 316 312 309 305 300 296 294 291 288 284 278 274 271 269 267 265 264 263 261 259 258 257 257 257 257 256 255 254 254 253 252
342 341 339 338 337 335 332 329 328 325 323 321 316 311 306 303 301 299 296 294 291 286 282 277 273 271 269 267 267 267 265 262 259 257 255 256 257 255 254 253 253 252
344 342 340 339 338 337 336 334 332 328 325 323 320 315 310 306 303 301 299 298 296 293 288 284 282 279 277 272 269 267 268 268 266 263 259 258 258 258 257 257 256 255
344 341 339 338 338 337 336 336 335 332 330 327 322 318 314 310 306 303 301 301 300 297 291 288 288 288 286 283 277 271 268 267 267 267 265 263 261 259 259 259 259 257
343 340 338 337 336 335 333 333 333 332 334 333 326 321 318 314 310 308 305 301 299 297 293 291 292 292 291 289 285 279 273 267 264 264 264 263 263 262 261 261 261 260
342 341 339 337 335 333 330 330 330 330 332 332 327 321 319 318 316 312 308 304 300 297 295 292 293 294 295 293 289 284 278 271 266 265 262 261 261 262 261 261 261 261
340 340 338 337 335 333 331 329 329 329 330 330 327 322 319 318 319 316 312 310 305 301 298 294 294 296 297 295 294 290 282 275 271 267 265 264 264 264 263 261 260 260
340 339 338 337 336 335 334 332 331 330 331 331 328 325 321 318 317 315 312 312 310 307 304 299 298 300 301 300 298 294 287 280 274 267 266 268 271 270 269 267 264 262